Location: Dittelbrunn
(50.0738°N, 10.2196°E)
Time: 23:18:13
(UTC+00:00)

Cosmos 1844 Rocket - Pass Details

Date: 18 September 2020
Orbit: 823 x 846 km, 71.0° (Epoch: 30 October)

Event Time Altitude Azimuth Distance (km) Brightness Sun altitude
Rises 17:57:33 0° 150° (SSE) 3,347 5.4 -6.0°
Reaches altitude 10° 18:01:13 10° 125° (SE) 2,423 4.5 -6.6°
Maximum altitude 18:03:52 14° 96° (E) 2,175 4.2 -7.0°
Drops below altitude 10° 18:06:31 10° 68° (ENE) 2,436 4.6 -7.4°
Sets 18:10:12 0° 43° (NE) 3,380 5.5 -8.0°
